Location: Briis
(48.6240°N, 2.1211°E)
Time: 07:24:36
(UTC+00:00)

NOSS 3-3 (C) - Pass Details

Date: 25 September 2020
Orbit: 837 x 1375 km, 63.4° (Epoch: 13 October)

Event Time Altitude Azimuth Distance (km) Brightness Sun altitude
Exits shadow 03:39:06 38° 259° (WSW) 1,406 4.3 -20.7°
Maximum altitude 03:41:21 59° 319° (NW) 1,116 4.2 -20.4°
Drops below altitude 10° 03:48:03 10° 39° (NE) 2,914 7.4 -19.4°
Sets 03:50:57 0° 43° (NE) 3,959 8.3 -18.9°
